Regional Weather Roundup
Issued by NWS Columbia, SC

Home | Current Version | Previous Version | Text Only | Print | Product List | Glossary On
Versions: 1 2 3 4 5 6 7 8 9 10 11 12 13 14 15 16 17 18 19 20 21 22 23 24 25 26 27 28 29 30 31 32 33 34 35 36 37 38 39 40 41 42 43 44 45 46 47 48 49 50
000
ASUS42 KCAE 301510
RWRCAE
REGIONAL WEATHER ROUNDUP
NATIONAL WEATHER SERVICE COLUMBIA SC
1100 AM EDT WED JUL 30 2014

NOTE: "FAIR" INDICATES FEW OR NO CLOUDS BELOW 12,000 FEET WITH NO
SIGNIFICANT WEATHER AND/OR OBSTRUCTIONS TO VISIBILITY.

NOT ALL STATIONS ARE QUALITY CONTROLLED BY THE NATIONAL
WEATHER SERVICE. USE DATA WITH CAUTION...ESPECIALLY
DEWPOINT OBSERVATIONS.

SCZ001>056-GAZ040-063>065-077-301600-
...UPSTATE SOUTH CAROLINA...

CITY           SKY/WX    TMP DP  RH WIND       PRES   REMARKS
ANDERSON       SUNNY     76  53  44 NE14      30.08R
LIBERTY        FAIR      76  73  91 MISG      30.09S
SPARTANBURG    FAIR      75  55  50 NE12      30.09S
CLEMSON        SUNNY     77  53  43 NE9       30.10R
GREENVILLE     SUNNY     74  52  46 NE13      30.10S
GREENWOOD      SUNNY     77  57  50 NE7       30.08S
GREER          SUNNY     74  55  51 NE14      30.09S
ROCK HILL      SUNNY     74  60  61 VRB3      30.10R
CHESTER        FAIR      77  63  61 N9        30.09R
LAURENS        FAIR      75  57  53 NE12      30.09R


...CENTRAL SOUTH CAROLINA...

CITY           SKY/WX    TMP DP  RH WIND       PRES   REMARKS
COLUMBIA APT   MOSUNNY   83  60  45 MISG      30.04R
COLUMBIA OWENS MOSUNNY   80  62  54 NE6       30.05R
DARLINGTON     SUNNY     79  66  65 N5        30.07R
FLORENCE       SUNNY     81  68  64 E5        30.04S
MCENTIRE ANGB  MOSUNNY   80  65  60 N6        30.05R
ORANGEBURG     SUNNY     81  65  58 VRB7      30.03R
SUMTER SHAW    PTSUNNY   77  67  72 VRB5      30.03R
NEWBERRY       FAIR      77  61  57 N8        30.10R
AIKEN          FAIR      81  64  57 NE8       30.07S
BARNWELL       FAIR      82  68  61 SE7       30.03R
MANNING        PTSUNNY   82  73  74 E5        30.03R
CAMDEN         FAIR      77  63  61 NE5       30.07R
LANCASTER      FAIR      75  64  69 E6        30.08R
WINNSBORO      FAIR      79  61  53 N6        30.06S


...EASTERN AND COASTAL SOUTH CAROLINA...

CITY           SKY/WX    TMP DP  RH WIND       PRES   REMARKS
MYRTLE BEACH   PTSUNNY   82  70  65 NE12      30.03R
N MYRTLE BCH   SUNNY     83  68  60 E8        30.03R
CONWAY         FAIR      82  66  57 E6        30.04R
MARION         FAIR      81  64  57 NE7       30.04R
HARTSVILLE     PTSUNNY   81  46  30 NE3       30.07R
FLORENCE       SUNNY     81  68  64 E5        30.04S
DARLINGTON     SUNNY     79  66  65 N5        30.07R
CHARLESTON APT PTSUNNY   84  71  65 SE7       30.02R
MOUNT PLEASANT FAIR      82  73  74 CALM      30.01S
WALTERBORO     MOSUNNY   86  68  54 SE6       30.01S
BEAUFORT       PTSUNNY   85  69  58 VRB6      30.00R


...EASTERN GEORGIA...

CITY           SKY/WX    TMP DP  RH WIND       PRES   REMARKS
AUGUSTA BUSH F SUNNY     81  63  54 E5        30.02R
AUGUSTA DANIEL SUNNY     83  60  45 NE7       30.04R
THOMSON        SUNNY     80  67  64 NE5       30.08S
WASHINGTON     FAIR      81  64  57 NE6       30.06R
CLAXTON        FAIR      81  68  65 CALM      30.01R
SYLVANIA       MOSUNNY   82  73  74 CALM      30.02S
STATESBORO     PTSUNNY   80  68  67 CALM      30.01S
SAVANNAH       CLOUDY    85  68  56 SE9       30.00R


...SOUTHERN NORTH CAROLINA...

CITY           SKY/WX    TMP DP  RH WIND       PRES   REMARKS
CHARLOTTE      MOSUNNY   74  58  57 N8        30.10R
MONROE         SUNNY     74  62  66 E6        30.09R
WADESBORO      SUNNY     76  62  61 CALM      30.08R
ROCKINGHAM       N/A     79  64  61 CALM      30.07R
RUTHERFORDTON  SUNNY     72  52  49 N6        30.13R
ASHEVILLE      SUNNY     67  50  54 N9        30.15S

$$


USA.gov is the U.S. government's official web portal to all federal, state and local government web resources and services.